Home > Weather > Bydgoszcz > Past weeks

Flag for Poland Past Weather in Bydgoszcz, Poland — Yesterday and Last 2 Weeks

Now
62 °F

Fog.


Feels Like: 62 °F
Forecast: 60 / 75 °F
Wind: 1 mph from Northwest

Location: Torun

Current Time: Jul 29, 2016 at 2:17:55 AM

Latest Report: Jul 29, 2016 at 1:00 AM


Visibility: 5 mi

Pressure: 29.94 "Hg

Humidity: 90%

Dew Point: 59 °F

Location of BydgoszczLocation

Past Weather in Bydgoszcz — Graph

°F

Bydgoszcz Temperature Yesterday

Maximum temperature yesterday: 76 °F (at 5:00 PM)
Minimum temperature yesterday: 64 °F (at 11:00 PM)
Average temperature yesterday: 69 °F

High & Low Weather Summary for the Past Weeks

 TemperatureHumidityPressure
High86 °F (Jul 26, 3:00 PM)97% (Jul 14, 1:00 AM)30.21 "Hg (Jul 14, 1:00 AM)
Low48 °F (Jul 22, 4:00 AM)29% (Jul 21, 5:00 PM)29.44 "Hg (Jul 14, 7:00 PM)
Average66 °F74%30.02 "Hg
* Reported Jul 14 1:00 AM — Jul 29 1:00 AM, Bydgoszcz, Weather by CustomWeather, © 2016

Note: Actual official high and low records may vary slightly from our data, if they occured in-between our weather recording intervals... More about our weather records

Advertising

Bydgoszcz Weather History for the Previous 24 Hours

Scroll right to see more
 ConditionsComfort  
Time TempWeatherWind HumidityBarometerVisibility
1:00 AM
Fri, Jul 29
62 °FFog.1 mph90%29.94 "Hg5 mi
11:00 PM
Thu, Jul 28
64 °FPassing clouds.No wind88%29.96 "Hg7 mi
8:00 PM74 °FPartly sunny.1 mph59%29.94 "Hg22 mi
6:00 PM76 °FScattered clouds.2 mph52%29.94 "Hg22 mi
5:00 PM76 °FScattered clouds.3 mph54%29.95 "Hg19 mi
3:00 PM75 °FPartly sunny.2 mph63%29.97 "Hg19 mi
2:00 PM72 °FOvercast.2 mph74%29.98 "Hg17 mi
1:00 PM73 °FOvercast.2 mph70%29.98 "Hg17 mi
12:00 PM72 °FOvercast.2 mph75%29.98 "Hg17 mi
11:00 AM70 °FOvercast.2 mph84%29.96 "Hg10 mi
10:00 AM69 °FOvercast.2 mph86%29.96 "Hg9 mi
9:00 AM68 °FFog.2 mph90%29.95 "Hg6 mi
8:00 AM66 °FLow clouds.2 mph96%29.94 "Hg2 mi
7:00 AM66 °FFog.2 mph96%29.94 "Hg1 mi
6:00 AM66 °FFog.2 mph96%29.93 "Hg2 mi
5:00 AM66 °FFog.No wind95%29.92 "Hg2 mi
4:00 AM66 °FFog.1 mph95%29.91 "Hg2 mi
3:00 AM67 °FFog.1 mph96%29.91 "Hg3 mi
2:00 AM66 °FOvercast.2 mph95%29.92 "Hg2 mi
Weather by CustomWeather, © 2016

See weather overviewHow to use our weather pages